| time (UTC) | temp F | wind direction | speed knots | gust knots | rain 1hr in | rain 24hr in | rain mn in | humidity % | barometer mb |
| 20260507180017 | 64 | 220 | 12.2 | 21.7 | 0.00 | 0.00 | 0.00 | 48 | 1013.8 |
| 20260507174508 | 63 | 263 | 9.6 | 21.7 | 0.00 | 0.00 | 0.00 | 50 | 1013.9 |
| 20260507173011 | 63 | 201 | 10.4 | 21.7 | 0.00 | 0.00 | 0.00 | 53 | 1014.1 |
| 20260507171502 | 62 | 232 | 10.4 | 20.9 | 0.00 | 0.00 | 0.00 | 50 | 1014.5 |
| 20260507164555 | 61 | 213 | 10.4 | 20.9 | 0.00 | 0.00 | 0.00 | 54 | 1015.0 |
| 20260507163055 | 60 | 206 | 10.4 | 17.4 | 0.00 | 0.00 | 0.00 | 56 | 1015.0 |
| 20260507161552 | 60 | 199 | 12.2 | 22.6 | 0.00 | 0.00 | 0.00 | 55 | 1015.2 |
| 20260507160051 | 59 | 199 | 11.3 | 20.9 | 0.00 | 0.00 | 0.00 | 58 | 1015.4 |
| 20260507154541 | 58 | 236 | 11.3 | 21.7 | 0.00 | 0.00 | 0.00 | 59 | 1015.6 |
| 20260507153037 | 58 | 210 | 9.6 | 18.2 | 0.00 | 0.00 | 0.00 | 60 | 1015.8 |
| 20260507151533 | 57 | 207 | 5.2 | 14.8 | 0.00 | 0.00 | 0.00 | 62 | 1016.0 |
| 20260507150036 | 56 | 211 | 8.7 | 19.1 | 0.00 | 0.00 | 0.00 | 62 | 1016.1 |
| 20260507144523 | 55 | 240 | 7.8 | 14.8 | 0.00 | 0.00 | 0.00 | 65 | 1016.4 |
| 20260507143019 | 54 | 251 | 7.8 | 13.9 | 0.00 | 0.00 | 0.00 | 67 | 1016.7 |
| 20260507141516 | 53 | 237 | 5.2 | 15.6 | 0.00 | 0.00 | 0.00 | 69 | 1016.7 |
| 20260507140012 | 52 | 205 | 7.0 | 17.4 | 0.00 | 0.00 | 0.00 | 69 | 1016.8 |
| 20260507134507 | 51 | 210 | 5.2 | 9.6 | 0.00 | 0.00 | 0.00 | 75 | 1016.6 |
| 20260507133002 | 49 | 208 | 3.5 | 7.8 | 0.00 | 0.00 | 0.00 | 79 | 1016.9 |
| 20260507131602 | 47 | 231 | 4.3 | 8.7 | 0.00 | 0.00 | 0.00 | 81 | 1016.9 |
| 20260507130107 | 46 | 205 | 3.5 | 7.0 | 0.00 | 0.00 | 0.00 | 82 | 1017.0 |
| 20260507124601 | 45 | 200 | 4.3 | 8.7 | 0.00 | 0.00 | 0.00 | 84 | 1016.8 |
| 20260507123054 | 44 | 201 | 2.6 | 5.2 | 0.00 | 0.00 | 0.00 | 86 | 1016.8 |
| 20260507121551 | 43 | 204 | 3.5 | 5.2 | 0.00 | 0.00 | 0.00 | 87 | 1016.9 |
| 20260507120049 | 42 | 200 | 2.6 | 5.2 | 0.00 | 0.00 | 0.00 | 87 | 1016.9 |
| 20260507114559 | 42 | 193 | 2.6 | 4.3 | 0.00 | 0.00 | 0.00 | 87 | 1016.9 |
| 20260507113043 | 42 | 203 | 2.6 | 3.5 | 0.00 | 0.00 | 0.00 | 85 | 1016.9 |
| 20260507111542 | 43 | 201 | 1.7 | 4.3 | 0.00 | 0.00 | 0.00 | 84 | 1016.9 |
| 20260507110044 | 43 | 215 | 2.6 | 4.3 | 0.00 | 0.00 | 0.00 | 85 | 1017.0 |
| 20260507104539 | 42 | 224 | 1.7 | 3.5 | 0.00 | 0.00 | 0.00 | 86 | 1017.0 |
| 20260507103043 | 41 | 228 | 0.0 | 0.0 | 0.00 | 0.00 | 0.00 | 85 | 1017.1 |
| 20260507101537 | 42 | 207 | 0.0 | 0.0 | 0.00 | 0.00 | 0.00 | 84 | 1017.0 |
| 20260507100036 | 42 | 207 | 0.0 | 0.0 | 0.00 | 0.00 | 0.00 | 83 | 1017.0 |
| 20260507094535 | 43 | 207 | 0.0 | 0.0 | 0.00 | 0.00 | 0.00 | 82 | 1017.1 |
| 20260507093028 | 43 | 207 | 0.0 | 0.0 | 0.00 | 0.00 | 0.00 | 81 | 1017.2 |
| 20260507091531 | 44 | 207 | 0.9 | 2.6 | 0.00 | 0.00 | 0.00 | 80 | 1017.3 |
| 20260507090024 | 44 | 230 | 0.9 | 2.6 | 0.00 | 0.00 | 0.00 | 79 | 1017.4 |
| 20260507084522 | 44 | 205 | 2.6 | 3.5 | 0.00 | 0.00 | 0.00 | 78 | 1017.5 |
| 20260507083019 | 45 | 233 | 0.9 | 3.5 | 0.00 | 0.00 | 0.00 | 77 | 1017.6 |
| 20260507081516 | 45 | 217 | 1.7 | 4.3 | 0.00 | 0.00 | 0.00 | 76 | 1017.7 |
| 20260507080014 | 46 | 239 | 2.6 | 4.3 | 0.00 | 0.00 | 0.00 | 75 | 1017.7 |
| 20260507074511 | 46 | 230 | 1.7 | 4.3 | 0.00 | 0.00 | 0.00 | 75 | 1017.8 |
| 20260507073008 | 46 | 239 | 0.9 | 2.6 | 0.00 | 0.00 | 0.00 | 74 | 1017.8 |
| 20260507071506 | 46 | 240 | 0.0 | 2.6 | 0.00 | 0.00 | 0.00 | 73 | 1018.0 |
| 20260507070002 | 47 | 240 | 0.0 | 2.6 | 0.00 | 0.00 | 0.00 | 71 | 1018.1 |
| 20260507064600 | 48 | 241 | 1.7 | 2.6 | 0.00 | 0.00 | 0.00 | 70 | 1018.1 |
| 20260507063100 | 48 | 237 | 1.7 | 3.5 | 0.00 | 0.00 | 0.00 | 69 | 1018.3 |
| 20260507061555 | 49 | 229 | 1.7 | 2.6 | 0.00 | 0.00 | 0.00 | 68 | 1018.4 |
| 20260507060055 | 49 | 236 | 1.7 | 4.3 | 0.00 | 0.00 | 0.00 | 68 | 1018.6 |
| 20260507054551 | 49 | 231 | 0.9 | 2.6 | 0.00 | 0.00 | 0.00 | 68 | 1018.8 |
| 20260507053053 | 49 | 228 | 0.0 | 2.6 | 0.00 | 0.00 | 0.00 | 67 | 1018.8 |
| 20260507051548 | 50 | 232 | 0.9 | 2.6 | 0.00 | 0.00 | 0.00 | 65 | 1018.6 |
| 20260507050046 | 50 | 228 | 0.9 | 3.5 | 0.00 | 0.00 | 0.00 | 65 | 1018.5 |
| 20260507044558 | 50 | 233 | 1.7 | 4.3 | 0.00 | 0.00 | 0.00 | 64 | 1018.6 |
| 20260507043048 | 50 | 242 | 0.9 | 2.6 | 0.00 | 0.00 | 0.00 | 62 | 1018.6 |
| 20260507041546 | 50 | 231 | 0.0 | 2.6 | 0.00 | 0.00 | 0.00 | 62 | 1018.6 |
| 20260507040046 | 50 | 233 | 0.9 | 2.6 | 0.00 | 0.00 | 0.00 | 60 | 1018.6 |
| 20260507034545 | 50 | 233 | 0.9 | 3.5 | 0.00 | 0.00 | 0.00 | 59 | 1018.8 |
| 20260507033055 | 50 | 234 | 0.0 | 2.6 | 0.00 | 0.00 | 0.00 | 57 | 1018.7 |
| 20260507031555 | 49 | 236 | 0.0 | 2.6 | 0.00 | 0.00 | 0.00 | 62 | 1018.8 |
| 20260507030101 | 48 | 212 | 0.0 | 1.7 | 0.00 | 0.00 | 0.00 | 60 | 1018.6 |
| 20260507024601 | 49 | 303 | 0.0 | 0.0 | 0.00 | 0.00 | 0.00 | 58 | 1018.7 |
| 20260507023040 | 49 | 303 | 0.0 | 0.0 | 0.00 | 0.00 | 0.00 | 50 | 1018.4 |
| 20260507021549 | 50 | 303 | 0.0 | 0.0 | 0.00 | 0.00 | 0.00 | 50 | 1018.1 |
| 20260507020052 | 52 | 303 | 0.0 | 0.0 | 0.00 | 0.00 | 0.00 | 48 | 1018.2 |
| 20260507014549 | 52 | 303 | 0.0 | 0.0 | 0.00 | 0.00 | 0.00 | 46 | 1017.9 |
| 20260507013041 | 54 | 303 | 0.0 | 0.0 | 0.00 | 0.00 | 0.00 | 45 | 1017.9 |
| 20260507011545 | 56 | 350 | 0.0 | 0.0 | 0.00 | 0.00 | 0.00 | 43 | 1017.8 |
| 20260507010043 | 57 | 303 | 0.0 | 0.0 | 0.00 | 0.00 | 0.00 | 40 | 1017.8 |
| 20260507004536 | 59 | 291 | 1.7 | 3.5 | 0.00 | 0.00 | 0.00 | 35 | 1017.9 |
| 20260507003036 | 59 | 323 | 2.6 | 7.0 | 0.00 | 0.00 | 0.00 | 35 | 1017.7 |
| 20260507001536 | 60 | 294 | 1.7 | 3.5 | 0.00 | 0.00 | 0.00 | 34 | 1017.9 |
| 20260507000035 | 59 | 304 | 1.7 | 5.2 | 0.00 | 0.00 | 0.00 | 35 | 1018.0 |
| 20260506234545 | 60 | 355 | 5.2 | 10.4 | 0.00 | 0.00 | 0.00 | 34 | 1017.9 |
| 20260506233037 | 60 | 7 | 3.5 | 7.8 | 0.00 | 0.00 | 0.00 | 33 | 1017.9 |
| 20260506231534 | 61 | 276 | 2.6 | 7.8 | 0.00 | 0.00 | 0.00 | 35 | 1017.9 |
| 20260506230030 | 61 | 317 | 2.6 | 7.8 | 0.00 | 0.00 | 0.00 | 34 | 1017.9 |
| 20260506224529 | 61 | 302 | 6.1 | 11.3 | 0.00 | 0.00 | 0.00 | 35 | 1018.0 |
| 20260506223027 | 61 | 333 | 2.6 | 7.8 | 0.00 | 0.00 | 0.00 | 36 | 1018.0 |
| 20260506221524 | 60 | 328 | 2.6 | 7.0 | 0.00 | 0.00 | 0.00 | 36 | 1018.2 |
| 20260506220023 | 60 | 317 | 2.6 | 5.2 | 0.00 | 0.00 | 0.00 | 36 | 1018.2 |
| 20260506214522 | 60 | 226 | 3.5 | 9.6 | 0.00 | 0.00 | 0.00 | 35 | 1018.3 |
| 20260506213020 | 59 | 282 | 1.7 | 7.8 | 0.00 | 0.00 | 0.00 | 40 | 1018.4 |
| 20260506211522 | 58 | 247 | 2.6 | 7.8 | 0.00 | 0.00 | 0.00 | 39 | 1019.0 |
| 20260506210019 | 59 | 263 | 1.7 | 7.8 | 0.00 | 0.00 | 0.00 | 39 | 1019.1 |
| 20260506204517 | 58 | 230 | 0.0 | 7.0 | 0.00 | 0.00 | 0.00 | 37 | 1019.3 |
| 20260506203016 | 58 | 292 | 3.5 | 8.7 | 0.00 | 0.00 | 0.00 | 36 | 1019.5 |
| 20260506201514 | 58 | 88 | 2.6 | 5.2 | 0.00 | 0.00 | 0.00 | 38 | 1019.8 |
| 20260506200013 | 57 | 328 | 6.1 | 10.4 | 0.00 | 0.00 | 0.00 | 37 | 1020.0 |
| 20260506194516 | 57 | 4 | 4.3 | 10.4 | 0.00 | 0.00 | 0.00 | 35 | 1020.0 |
| 20260506193014 | 58 | 345 | 4.3 | 13.9 | 0.00 | 0.00 | 0.00 | 37 | 1019.9 |
| 20260506191511 | 57 | 317 | 3.5 | 7.8 | 0.00 | 0.00 | 0.00 | 36 | 1019.9 |
| 20260506190010 | 57 | 334 | 1.7 | 7.0 | 0.00 | 0.00 | 0.00 | 39 | 1019.9 |
| 20260506184508 | 57 | 350 | 0.9 | 8.7 | 0.00 | 0.00 | 0.00 | 37 | 1019.9 |
| 20260506183011 | 56 | 359 | 4.3 | 10.4 | 0.00 | 0.00 | 0.00 | 37 | 1020.2 |
| 20260506181504 | 56 | 332 | 1.7 | 7.0 | 0.00 | 0.00 | 0.00 | 40 | 1020.1 |